Regional Weather Roundup
Issued by NWS

Home | Current Version | Previous Version | Text Only | Print | Product List | Glossary On
Versions: 1 2 3 4 5 6 7 8 9 10 11 12 13 14 15 16 17 18 19 20 21 22 23 24 25 26 27
000
ASUS45 KREV 081410
RWRNV
NEVADA REGIONAL WEATHER ROUNDUP
NATIONAL WEATHER SERVICE RENO NV
600 AM PST THU DEC 08 2016

NOTE: "FAIR" INDICATES FEW OR NO CLOUDS BELOW 12,000 FEET WITH NO
SIGNIFICANT WEATHER AND/OR OBSTRUCTIONS TO VISIBILITY.

NVZ001-003-004-081500-
WESTERN NEVADA

CITY           SKY/WX    TMP DP  RH WIND       PRES   REMARKS
RENO           FRZ RAIN  28  23  81 SW5       30.06R
CARSON CITY    CLOUDY    27  25  93 E18G24    30.06R
MINDEN         CLOUDY    25  25 100 N5        30.05F
PYRAMID LAKE     N/A     30 N/A N/A S14         N/A
FALLON         MOCLDY    25  22  88 NW6       30.10R
LOVELOCK       CLOUDY    24  20  84 NE7       30.10R
HAWTHORNE        N/A    N/A N/A N/A CALM      30.10S
$$

NVZ002-CAZ072-073-081500-
NORTHERN AND CENTRAL SIERRA

CITY           SKY/WX    TMP DP  RH WIND       PRES   REMARKS
S. LAKE TAHOE  LGT RAIN  40  36  86 S9        30.04R
TRUCKEE        DRIZZLE   37  34  87 SE5       30.01S
SQUAW VLY 8000   N/A     32  32 100 SW17        N/A
MAMMOTH LAKES  LGT SNOW  23  23  99 CALM      30.14R
BRIDGEPORT     LGT RAIN  41  33  73 VRB6G22   30.00S
$$

NVZ030-031-036-081500-
NORTHERN NEVADA

CITY           SKY/WX    TMP DP  RH WIND       PRES   REMARKS
ELKO           LGT SNOW  20  13  74 NE8       30.15R
WINNEMUCCA     LGT SNOW  22  21  96 NE7       30.11S FOG
WENDOVER       CLOUDY    19   9  63 CALM      30.28R
$$

NVZ035-037-081500-
CENTRAL NEVADA

CITY           SKY/WX    TMP DP  RH WIND       PRES   REMARKS
ELY            CLOUDY    19  12  74 CALM      30.15R
EUREKA           N/A     21  16  81 SW3       30.11S
$$

NVZ013-014-081500-
SOUTH CENTRAL NEVADA

CITY           SKY/WX    TMP DP  RH WIND       PRES   REMARKS
TONOPAH        CLOUDY    25  12  58 CALM      30.18
$$

NVZ017-020-022-081500-
SOUTHERN NEVADA

CITY           SKY/WX    TMP DP  RH WIND       PRES   REMARKS
LAS VEGAS      PTCLDY    36   9  32 CALM      30.24
N. LAS VEGAS   CLEAR     35  10  35 W3        30.24R
NELLIS AFB     CLEAR     33   5  31 E3        30.25
HENDERSON      CLEAR     31  12  45 S10       30.25R
MERCURY        CLEAR     28   6  39 CALM      30.21R
$$




USA.gov is the U.S. government's official web portal to all federal, state and local government web resources and services.